Camdenton, MO

3:57 AM CDT on April 24, 2018 (GMT -0500)
Camdenton

Weather History for KH21 - November, 2013

Change the Weather History Date:

Saturday, November 9, 2013

  Actual Average (KAIZ) Record (KAIZ)
Temperature  
Mean Temperature 56 °F -  
Max Temperature 64 °F 54 °F 80 °F (2006)
Min Temperature 48 °F 37 °F 25 °F (2017)
Degree Days  
Heating Degree Days 9    
Growing Degree Days 6 (Base 50)    
Moisture  
Dew Point 38 °F    
Average Humidity 53    
Maximum Humidity 66    
Minimum Humidity 34    
Precipitation  
Precipitation 0.00 in - - ()
Sea Level Pressure  
Sea Level Pressure 30.15 in    
Wind  
Wind Speed 9 mph (SW)    
Max Wind Speed 17 mph    
Max Gust Speed 25 mph    
Visibility 10 miles    
Events      
Averages and records for this station are not official NWS values.
T = Trace of Precipitation, MM = Missing Value Source: NWS Daily Summary

Daily Weather History Graph

Daily Weather History Graph

Search for Another Location

Airport or City:

Astronomy

Nov. 09, 2013 Rise Set
Actual Time 6:45 AM CST 5:03 PM CST
Civil Twilight 6:17 AM CST 5:31 PM CST
Nautical Twilight 5:45 AM CST 6:02 PM CST
Astronomical Twilight 5:15 AM CST 6:33 PM CST
Moon 12:23 PM CST (11/9) 11:32 PM CST (11/9)
Length of Visible Light 11h 13m
Length of Day
10h 18m
Waxing Crescent, 44% of the Moon is Illuminated
Nov 9
Waxing Crescent
Nov 9
First Quarter
Nov 17
Full
Nov 25
Last Quarter
Dec 2
New

Hourly Weather History & Observations

Time (CST) Temp. Dew Point Humidity Pressure Visibility Wind Dir Wind Speed Gust Speed Precip Events Conditions
12:15 AM 50.0 °F 37.4 °F 62% 30.07 in 10.0 mi South 10.4 mph 17.3 mph N/A   Clear
12:35 AM 50.0 °F 37.4 °F 62% 30.07 in 10.0 mi South 12.7 mph 16.1 mph N/A   Clear
12:55 AM 51.8 °F 37.4 °F 58% 30.08 in 10.0 mi SSW 9.2 mph - N/A   Clear
1:15 AM 50.0 °F 37.4 °F 62% 30.07 in 10.0 mi South 9.2 mph - N/A   Clear
1:35 AM 50.0 °F 37.4 °F 62% 30.07 in 10.0 mi South 10.4 mph 16.1 mph N/A   Clear
1:55 AM 50.0 °F 37.4 °F 62% 30.07 in 10.0 mi South 10.4 mph 17.3 mph N/A   Clear
2:15 AM 50.0 °F 37.4 °F 62% 30.07 in 10.0 mi South 11.5 mph 19.6 mph N/A   Clear
2:35 AM 50.0 °F 37.4 °F 62% 30.06 in 10.0 mi SSW 15.0 mph 21.9 mph N/A   Clear
2:55 AM 50.0 °F 37.4 °F 62% 30.07 in 10.0 mi SSW 10.4 mph 16.1 mph N/A   Clear
3:15 AM 50.0 °F 37.4 °F 62% 30.07 in 10.0 mi SSW 10.4 mph 16.1 mph N/A   Clear
3:35 AM 50.0 °F 37.4 °F 62% 30.07 in 10.0 mi SSW 8.1 mph 16.1 mph N/A   Clear
3:55 AM 50.0 °F 37.4 °F 62% 30.07 in 10.0 mi South 9.2 mph - N/A   Clear
4:15 AM 50.0 °F 37.4 °F 62% 30.07 in 10.0 mi SSW 9.2 mph - N/A   Clear
4:35 AM 50.0 °F 37.4 °F 62% 30.08 in 10.0 mi SSW 9.2 mph - N/A   Clear
4:55 AM 50.0 °F 37.4 °F 62% 30.08 in 10.0 mi SSW 8.1 mph - N/A   Clear
5:15 AM 50.0 °F 37.4 °F 62% 30.09 in 10.0 mi SSW 10.4 mph - N/A   Clear
5:35 AM 50.0 °F 37.4 °F 62% 30.09 in 10.0 mi SSW 11.5 mph 18.4 mph N/A   Clear
5:55 AM 50.0 °F 37.4 °F 62% 30.10 in 10.0 mi SSW 8.1 mph - N/A   Clear
6:15 AM 50.0 °F 37.4 °F 62% 30.11 in 10.0 mi SSW 10.4 mph 18.4 mph N/A   Clear
6:35 AM 48.2 °F 37.4 °F 66% 30.11 in 10.0 mi SSW 9.2 mph - N/A   Clear
6:55 AM 48.2 °F 37.4 °F 66% 30.11 in 10.0 mi SW 8.1 mph - N/A   Clear
7:15 AM 48.2 °F 37.4 °F 66% 30.12 in 10.0 mi SSW 9.2 mph - N/A   Clear
7:35 AM 50.0 °F 37.4 °F 62% 30.12 in 10.0 mi SSW 8.1 mph - N/A   Clear
7:55 AM 50.0 °F 37.4 °F 62% 30.13 in 10.0 mi SSW 9.2 mph - N/A   Clear
8:15 AM 51.8 °F 37.4 °F 58% 30.14 in 10.0 mi SSW 9.2 mph - N/A   Clear
8:35 AM 51.8 °F 37.4 °F 58% 30.15 in 10.0 mi SW 13.8 mph 18.4 mph N/A   Clear
8:55 AM 53.6 °F 37.4 °F 54% 30.15 in 10.0 mi SW 15.0 mph 19.6 mph N/A   Clear
9:15 AM 53.6 °F 39.2 °F 58% 30.16 in 10.0 mi SW 15.0 mph 25.3 mph N/A   Clear
9:35 AM 55.4 °F 39.2 °F 54% 30.16 in 10.0 mi WSW 17.3 mph 20.7 mph N/A   Clear
9:55 AM 59.0 °F 39.2 °F 48% 30.16 in 10.0 mi WSW 16.1 mph 25.3 mph N/A   Clear
10:15 AM 59.0 °F 39.2 °F 48% 30.17 in 10.0 mi West 11.5 mph 18.4 mph N/A   Clear
10:35 AM 59.0 °F 39.2 °F 48% 30.17 in 10.0 mi West 13.8 mph 18.4 mph N/A   Clear
10:55 AM 59.0 °F 39.2 °F 48% 30.17 in 10.0 mi West 13.8 mph 17.3 mph N/A   Clear
11:15 AM 60.8 °F 41.0 °F 48% 30.17 in 10.0 mi West 10.4 mph - N/A   Clear
11:35 AM 60.8 °F 39.2 °F 45% 30.16 in 10.0 mi West 5.8 mph - N/A   Clear
11:55 AM 60.8 °F 41.0 °F 48% 30.16 in 10.0 mi WNW 9.2 mph 16.1 mph N/A   Clear
12:15 PM 60.8 °F 39.2 °F 45% 30.15 in 10.0 mi West 11.5 mph - N/A   Clear
12:35 PM 62.6 °F 39.2 °F 42% 30.14 in 10.0 mi West 10.4 mph - N/A   Clear
12:55 PM 62.6 °F 39.2 °F 42% 30.14 in 10.0 mi NW 5.8 mph - N/A   Clear
1:15 PM 62.6 °F 37.4 °F 39% 30.14 in 10.0 mi WSW 6.9 mph - N/A   Clear
1:35 PM 62.6 °F 37.4 °F 39% 30.14 in 10.0 mi Calm Calm - N/A   Clear
1:55 PM 64.4 °F 37.4 °F 37% 30.14 in 10.0 mi West 6.9 mph - N/A   Clear
2:15 PM 64.4 °F 35.6 °F 34% 30.15 in 10.0 mi SW 4.6 mph - N/A   Clear
2:35 PM 64.4 °F 35.6 °F 34% 30.15 in 10.0 mi WNW 4.6 mph - N/A   Clear
2:55 PM 64.4 °F 35.6 °F 34% 30.15 in 10.0 mi Calm Calm - N/A   Clear
3:15 PM 64.4 °F 35.6 °F 34% 30.16 in 10.0 mi NW 4.6 mph - N/A   Clear
3:35 PM 64.4 °F 35.6 °F 34% 30.16 in 10.0 mi Calm Calm - N/A   Clear
3:55 PM 64.4 °F 35.6 °F 34% 30.16 in 10.0 mi Calm Calm - N/A   Clear
4:15 PM 62.6 °F 35.6 °F 37% 30.16 in 10.0 mi Calm Calm - N/A   Clear
4:35 PM 62.6 °F 35.6 °F 37% 30.17 in 10.0 mi Calm Calm - N/A   Clear
4:55 PM 62.6 °F 35.6 °F 37% 30.17 in 10.0 mi Calm Calm - N/A   Clear
5:15 PM 60.8 °F 35.6 °F 39% 30.18 in 10.0 mi Calm Calm - N/A   Clear
5:35 PM 59.0 °F 35.6 °F 42% 30.19 in 10.0 mi WSW 3.5 mph - N/A   Clear
5:55 PM 57.2 °F 37.4 °F 48% 30.19 in 10.0 mi Calm Calm - N/A   Clear
6:15 PM 59.0 °F 35.6 °F 42% 30.20 in 10.0 mi SW 4.6 mph - N/A   Clear
6:35 PM 57.2 °F 37.4 °F 48% 30.21 in 10.0 mi SW 4.6 mph - N/A   Clear
6:55 PM 55.4 °F 37.4 °F 51% 30.22 in 10.0 mi SW 4.6 mph - N/A   Clear
7:15 PM 55.4 °F 37.4 °F 51% 30.22 in 10.0 mi WSW 5.8 mph - N/A   Clear
7:35 PM 55.4 °F 39.2 °F 54% 30.23 in 10.0 mi WSW 5.8 mph - N/A   Clear
8:35 PM 53.6 °F 39.2 °F 58% 30.24 in 10.0 mi SW 5.8 mph - N/A   Clear
8:55 PM 53.6 °F 39.2 °F 58% 30.24 in 10.0 mi WSW 5.8 mph - N/A   Clear
9:15 PM 53.6 °F 39.2 °F 58% 30.24 in 10.0 mi WSW 5.8 mph - N/A   Clear
9:35 PM 53.6 °F 37.4 °F 54% 30.25 in 10.0 mi WSW 5.8 mph - N/A   Clear
9:55 PM 51.8 °F 37.4 °F 58% 30.26 in 10.0 mi WSW 4.6 mph - N/A   Clear
10:15 PM 51.8 °F 37.4 °F 58% 30.26 in 10.0 mi West 5.8 mph - N/A   Clear
10:35 PM 51.8 °F 37.4 °F 58% 30.27 in 10.0 mi West 5.8 mph - N/A   Clear
10:55 PM 50.0 °F 39.2 °F 66% 30.27 in 10.0 mi West 5.8 mph - N/A   Clear
11:15 PM 50.0 °F 37.4 °F 62% 30.27 in 10.0 mi West 4.6 mph - N/A   Clear
11:35 PM 48.2 °F 37.4 °F 66% 30.27 in 10.0 mi WNW 4.6 mph - N/A   Clear
11:55 PM 48.2 °F 37.4 °F 66% 30.28 in 10.0 mi WNW 4.6 mph - N/A   Clear